Wind_Speed
15 13 7 6 8 7 14 23 24 24 26 27 22 16 15 12 7 7 9 9 9 10 11 11 11 9 6 8 12 16 20 18 14 16 20 20 18 17 16 13 19 25 23 23 29 33 35 35 34 33 32 33 35 35 34 35 35 35 36 39 40 41 41 42 42 44 45 45 46 46 46 46 45 44 42 41 40 39 38 37 37 36 36 35 35 37 37
16 16 14 10 7 11 10 18 24 22 24 27 23 19 18 15 9 8 10 8 5 9 11 10 10 12 12 12 12 16 18 14 11 12 16 20 19 17 16 15 19 24 22 21 26 29 30 32 32 31 32 33 34 34 33 34 35 35 35 38 40 41 42 43 42 42 43 43 44 45 46 46 46 45 44 42 40 40 40 39 37 36 35 34 35 36 37
14 15 15 12 9 11 14 14 22 24 22 25 24 20 18 16 12 12 12 10 6 8 10 11 10 12 12 12 11 12 12 12 13 12 11 17 24 23 21 19 21 24 22 21 24 26 28 30 30 30 31 31 32 32 32 33 34 34 34 37 41 42 42 42 42 41 42 43 43 43 45 45 46 45 45 44 42 41 41 40 39 38 37 36 36 36 36
9 12 16 15 11 12 15 15 18 25 21 20 21 18 17 14 13 14 13 11 8 7 11 13 11 8 8 8 7 8 9 10 8 8 6 8 15 22 24 24 23 22 23 23 23 24 26 28 29 30 30 29 29 30 31 31 32 33 34 37 40 43 42 41 42 42 42 42 42 43 43 44 45 45 45 44 44 43 42 42 41 41 40 39 38 37 37
8 12 15 14 10 11 10 11 13 18 16 16 18 18 18 17 15 13 10 8 7 7 10 14 12 9 7 5 4 5 8 8 4 3 4 3 2 9 17 20 20 19 21 23 21 20 21 23 25 27 28 28 29 29 29 30 30 32 35 36 38 42 43 43 43 43 43 43 43 43 43 43 43 44 45 45 45 45 44 43 42 43 43 42 41 39 39
8 12 13 11 12 10 6 9 14 11 9 14 19 21 21 18 15 11 8 9 9 9 8 9 11 9 8 7 5 4 4 4 3 2 2 3 4 3 5 7 9 9 13 17 15 13 15 17 19 23 24 26 28 28 27 29 31 33 35 35 36 39 43 44 44 43 43 43 44 44 43 43 43 43 45 45 45 45 44 43 44 45 45 44 43 42 41
7 9 10 12 13 9 7 12 15 8 8 12 11 13 20 22 19 16 14 13 11 6 4 5 7 7 10 9 7 4 4 4 4 5 6 6 6 5 5 2 4 7 10 11 7 5 8 10 13 18 22 22 25 26 27 29 31 32 34 36 35 36 40 44 44 43 43 43 43 43 43 43 43 43 44 45 45 45 45 44 45 46 46 46 45 44 43
5 7 9 10 8 8 11 13 11 8 8 9 7 6 13 19 19 14 10 10 12 10 6 6 6 7 9 9 5 3 4 4 3 3 3 4 8 10 6 5 9 8 7 6 3 3 7 8 7 12 18 20 22 24 25 28 30 32 33 35 37 36 38 42 44 43 43 43 43 43 43 43 44 44 45 45 44 44 45 44 44 45 46 46 46 46 45
5 5 8 8 7 11 14 11 9 9 7 6 5 7 5 4 7 8 7 7 9 10 8 7 8 7 7 6 5 3 1 2 3 1 7 8 4 1 5 11 11 5 2 2 2 4 7 8 7 8 12 16 19 22 24 25 28 30 31 34 38 38 37 39 43 43 43 43 43 42 43 44 45 46 46 45 44 44 44 44 44 44 45 46 46 46 46
4 4 5 7 10 12 10 9 9 8 5 6 6 6 4 1 1 4 7 6 6 8 10 11 9 9 7 5 5 5 4 7 8 11 15 16 14 13 13 14 10 4 2 2 4 4 4 7 8 10 11 13 15 20 23 24 25 28 31 34 37 40 38 38 40 42 42 42 43 43 43 44 45 45 45 44 43 43 43 44 44 44 43 43 44 46 46
6 5 4 6 8 5 5 11 11 8 6 6 7 5 4 1 3 4 8 8 5 1 2 6 7 6 7 5 5 8 10 14 16 15 15 14 13 13 12 10 5 1 3 4 4 3 4 4 6 8 11 13 14 17 21 23 24 27 31 34 35 38 39 37 37 40 42 42 43 44 44 44 43 43 43 42 42 42 42 43 43 42 41 40 42 43 45
6 6 5 4 3 3 8 8 7 9 8 7 6 7 2 7 12 12 6 4 8 9 10 9 6 4 3 3 6 9 10 12 13 13 13 12 11 11 11 8 5 5 7 7 5 5 5 5 6 5 8 12 15 17 18 20 24 27 29 32 33 34 36 36 35 37 40 41 42 42 42 42 41 40 40 40 39 39 40 41 41 40 40 39 39 39 40
7 7 7 3 4 7 14 8 9 8 3 8 6 5 2 11 13 17 16 11 12 14 11 8 3 2 8 11 10 10 11 12 13 12 12 11 10 10 11 11 10 8 8 6 5 5 6 7 5 3 6 10 15 18 18 19 23 25 25 27 30 32 34 36 36 35 37 40 40 40 39 38 38 38 37 37 37 37 38 38 38 38 38 37 36 35 35
6 5 7 3 5 7 15 11 17 18 4 7 2 5 10 12 13 17 18 18 19 16 12 11 10 10 13 14 12 12 13 13 13 12 12 12 11 11 12 11 9 9 8 7 6 5 6 6 3 2 4 7 12 17 18 18 21 22 21 23 27 31 33 34 35 35 35 37 37 37 36 34 34 35 34 34 34 34 35 34 34 34 35 35 35 34 33
6 7 7 2 3 8 16 11 11 13 6 4 6 11 13 16 20 19 17 19 18 15 13 14 14 13 14 15 14 13 13 13 13 12 11 12 12 12 11 9 9 10 8 6 6 6 7 9 8 6 4 6 9 13 15 16 17 18 18 18 22 28 31 32 35 34 33 34 35 34 33 33 33 32 32 32 32 32 32 31 30 31 32 32 33 33 32
6 6 2 1 3 5 16 13 7 7 9 10 11 11 11 16 19 16 15 16 15 14 13 12 13 13 14 15 15 15 14 14 13 13 12 12 12 10 10 9 10 9 8 6 7 7 8 12 11 8 7 6 5 7 11 13 14 17 16 14 17 25 29 30 32 33 30 30 31 30 30 30 30 30 29 29 29 29 29 29 29 29 29 30 31 32 31
5 4 1 4 5 6 16 15 9 9 10 11 11 11 10 13 15 14 14 14 13 13 12 10 11 12 14 14 14 15 15 14 14 13 12 12 11 10 9 10 10 8 6 7 8 8 7 10 11 5 4 3 1 5 10 11 12 16 16 11 13 21 26 27 29 30 27 26 26 26 26 27 27 27 26 26 26 27 27 28 28 28 27 28 29 29 28
7 5 4 6 5 6 12 10 9 9 9 10 11 11 11 12 12 12 13 13 12 11 11 10 10 11 12 12 12 13 13 13 13 13 12 11 10 10 10 11 11 9 7 7 8 8 6 6 7 4 3 4 3 7 9 9 12 16 15 11 11 18 21 22 24 26 25 24 23 23 23 23 23 24 23 22 23 24 25 26 26 25 25 25 26 26 25
6 4 3 2 6 7 8 9 8 8 10 10 10 9 10 11 11 12 12 12 12 11 10 10 10 9 10 11 11 11 11 11 11 12 12 10 9 9 9 9 9 8 7 6 6 6 4 2 3 5 3 2 3 4 4 6 10 14 15 11 11 16 18 17 18 21 22 22 21 21 22 22 21 21 20 20 21 22 22 23 23 22 23 23 22 22 22
6 8 7 10 15 14 10 9 10 9 9 9 9 9 10 10 11 12 12 12 12 12 11 10 10 9 9 10 9 9 10 10 10 10 11 9 8 9 9 7 6 7 7 5 5 5 5 4 2 2 1 0 2 5 7 6 6 11 15 13 11 13 15 14 15 18 19 19 19 19 20 20 19 19 19 19 20 21 21 21 21 21 21 21 20 20 19
7 10 11 13 15 14 11 10 9 8 7 8 9 11 11 12 13 13 13 13 12 12 12 12 10 9 9 9 9 9 9 9 8 9 10 9 9 9 9 7 6 6 6 5 4 4 4 4 3 1 1 1 1 5 8 9 7 7 12 13 11 12 13 13 14 15 17 18 17 17 18 19 18 20 20 19 20 22 23 22 21 21 20 20 20 19 19
6 7 8 9 9 9 9 9 6 7 10 11 13 12 12 13 14 15 15 15 14 13 12 12 11 10 10 9 9 9 8 7 8 9 9 9 8 7 7 5 4 3 3 3 4 3 3 3 2 1 1 0 1 2 4 7 7 7 10 12 11 11 12 13 14 14 15 17 17 16 19 21 20 20 20 19 19 21 22 23 22 21 19 19 20 20 20
8 10 12 12 9 9 12 14 14 13 13 15 16 15 13 13 14 16 17 18 18 18 16 14 13 12 12 11 11 11 9 8 8 7 6 6 6 5 4 4 3 2 2 3 3 3 2 2 2 1 1 1 3 6 5 6 8 10 12 13 13 14 14 14 16 16 15 17 17 15 16 22 24 23 21 18 15 14 16 18 20 20 19 18 18 18 18
14 18 20 18 14 13 16 19 20 16 14 16 19 19 17 15 15 16 16 17 18 19 19 18 16 13 12 11 11 11 10 9 7 6 4 4 4 3 2 2 2 1 1 1 2 1 1 2 2 1 1 1 4 7 9 9 10 11 12 12 12 15 16 16 17 16 15 18 18 12 10 18 24 25 23 19 14 10 10 11 12 15 16 17 18 18 18
18 21 23 23 22 20 18 19 20 18 15 16 20 21 21 20 19 18 18 18 18 19 19 19 17 13 11 11 10 10 9 8 6 4 3 3 2 1 0 1 1 1 1 1 1 1 2 2 2 1 2 2 1 7 10 12 11 11 12 11 11 12 15 16 15 14 15 19 19 13 11 15 18 17 17 16 13 11 9 8 9 10 11 13 14 15 15
23 23 25 26 26 25 22 20 20 19 16 16 19 21 21 20 20 20 20 20 19 19 17 17 17 14 11 10 10 7 6 6 4 2 2 2 2 2 2 2 3 3 4 4 3 3 3 3 2 1 1 3 3 5 10 12 12 12 12 11 10 11 13 14 14 12 13 15 17 14 12 13 14 13 12 11 9 8 8 7 7 7 7 7 8 8 10
27 26 25 23 23 24 24 22 21 20 17 16 18 19 18 17 17 17 17 17 18 17 17 17 17 15 12 11 9 6 4 3 3 3 3 3 4 4 4 4 3 4 5 6 5 5 5 4 3 3 2 3 6 8 7 8 9 12 13 12 11 13 14 13 13 12 12 13 14 14 12 13 14 15 15 15 14 13 11 8 7 6 5 4 3 3 4
29 28 26 24 24 26 26 24 23 23 22 20 20 20 20 19 18 18 18 18 17 16 16 16 16 15 13 11 8 6 5 5 4 3 3 4 4 5 6 7 7 6 7 7 7 7 7 7 7 8 8 7 8 8 9 10 10 10 12 12 13 14 13 13 14 14 13 12 13 14 14 14 15 15 14 13 14 13 12 10 8 6 4 3 1 1 1
31 29 28 29 31 31 29 27 25 25 24 23 21 21 21 20 19 19 19 19 17 16 16 14 13 13 13 10 7 6 7 7 5 4 4 5 5 6 6 7 8 9 9 9 9 8 8 9 10 11 11 12 12 11 12 13 12 12 12 14 15 14 12 10 12 13 13 13 14 15 15 15 15 15 13 12 10 8 8 9 8 6 4 3 2 3 3
31 28 28 30 31 31 30 29 29 28 27 25 23 23 22 21 20 20 19 19 18 17 15 13 13 12 11 8 6 5 5 5 5 5 5 7 9 9 9 10 11 11 11 11 10 9 9 9 10 11 11 11 12 12 12 12 12 13 14 15 16 15 12 10 9 11 13 14 15 14 13 12 12 12 11 11 10 7 5 6 7 5 3 2 2 3 4
30 28 28 28 28 30 31 30 29 29 28 26 25 25 24 23 23 21 20 19 18 16 15 13 12 10 9 8 7 6 6 5 5 5 7 9 11 12 13 15 16 17 16 15 14 13 11 9 9 10 13 13 12 10 11 13 13 13 13 13 14 14 13 12 13 13 13 13 13 12 11 10 10 10 9 8 8 6 5 5 6 5 2 1 2 3 4
28 27 28 28 28 29 29 27 26 27 27 27 27 26 25 25 24 23 21 20 17 16 16 15 12 9 8 8 7 7 7 7 7 8 10 12 13 15 17 19 21 21 20 19 18 18 17 14 11 11 12 14 14 12 11 12 13 13 12 12 12 12 13 13 13 13 12 12 12 11 10 9 8 8 8 8 7 7 6 5 4 4 2 1 3 4 5
26 23 23 24 26 27 27 27 28 28 28 28 28 27 26 25 24 23 22 20 17 17 18 16 13 9 8 8 8 8 9 10 9 10 12 16 18 19 20 22 23 22 20 19 19 20 20 18 16 15 12 11 12 15 16 15 13 12 12 11 11 12 13 13 12 12 12 12 12 10 10 10 9 7 8 8 7 6 6 5 4 3 3 0 5 8 8
23 25 23 22 23 26 28 28 29 29 29 28 27 26 25 25 24 23 22 19 18 19 19 17 14 10 8 8 8 9 12 14 14 13 15 17 20 20 21 23 24 23 20 19 19 20 20 19 17 15 13 11 11 13 15 16 14 13 12 11 11 11 12 12 12 12 11 11 11 11 9 9 9 8 6 5 5 4 4 4 3 3 3 2 7 12 13
4 10 18 21 23 25 27 28 29 29 28 27 26 25 25 25 24 23 21 19 19 19 19 17 14 11 10 11 12 14 17 18 18 18 18 19 19 19 19 21 22 21 19 18 18 18 18 18 16 13 11 12 13 13 14 15 14 13 13 12 11 11 11 11 11 12 11 10 12 12 9 7 8 7 5 5 5 5 5 5 4 3 4 4 6 11 13
32 19 8 2 8 11 13 16 20 22 23 24 24 23 23 24 23 22 21 20 19 20 20 19 17 14 13 15 17 19 21 20 19 20 20 21 21 20 20 20 20 20 19 18 18 18 17 17 17 15 13 14 16 16 15 16 14 13 13 12 11 12 12 10 9 10 11 10 11 10 8 6 7 7 6 5 6 6 6 6 6 4 5 6 6 7 8
43 37 31 25 18 14 11 7 2 8 15 19 20 18 19 19 19 18 19 19 20 22 21 20 20 20 18 18 18 19 19 19 20 21 22 21 21 21 22 22 21 20 20 19 18 18 18 18 18 17 17 17 17 17 17 17 16 16 16 15 14 14 14 13 12 12 12 11 10 9 9 8 8 7 6 6 6 5 5 4 5 5 5 5 4 4 4
49 45 42 41 38 34 30 24 16 8 3 7 10 12 13 13 12 13 16 18 21 23 22 22 23 24 22 21 22 22 21 21 21 20 20 21 21 23 26 25 23 22 23 21 17 17 19 19 20 21 21 19 17 18 18 18 18 18 17 17 17 17 16 15 14 14 14 14 13 12 11 10 9 7 7 7 8 8 7 6 5 6 6 4 3 3 4
51 49 48 48 48 47 44 39 31 26 22 19 17 15 13 11 11 14 17 19 20 22 27 28 28 27 26 26 27 27 26 25 23 22 23 25 27 28 30 29 26 24 23 21 20 21 22 22 23 24 23 21 18 17 17 18 19 19 19 19 19 18 16 15 15 15 15 15 15 15 14 13 12 10 9 7 6 6 6 6 5 5 5 3 2 1 1
47 48 48 49 50 51 51 49 47 43 39 36 35 34 32 28 24 22 20 20 23 29 33 34 33 31 31 31 32 32 31 30 29 28 29 30 31 32 32 30 27 25 24 22 22 23 24 24 25 25 25 22 20 19 18 17 18 20 21 20 19 18 18 18 18 17 17 17 16 16 15 15 14 12 9 7 6 5 5 4 2 1 2 4 5 5 5
42 44 45 47 49 49 48 49 51 50 47 45 44 44 43 42 40 38 35 32 33 36 37 38 39 38 36 36 36 36 34 33 32 31 31 31 32 33 32 29 26 24 24 23 22 22 22 24 25 25 24 23 22 21 21 21 20 20 20 20 19 19 20 21 21 19 18 18 18 17 16 15 15 13 11 10 11 10 8 6 5 4 4 5 7 7 8
36 38 40 43 45 45 45 47 48 47 46 46 47 48 48 47 46 43 41 41 42 43 41 41 43 43 40 39 39 38 37 36 34 33 33 32 32 32 31 28 25 23 22 21 21 21 22 23 24 23 22 21 21 21 22 23 23 22 21 21 20 20 21 22 22 21 19 19 19 18 17 15 15 15 13 13 13 14 13 13 13 12 11 11 10 10 11
32 33 34 36 39 40 41 42 43 42 42 43 44 44 46 47 46 44 42 43 44 43 41 41 43 43 41 40 41 40 39 38 36 35 35 33 31 30 28 25 22 21 20 20 21 22 23 24 24 22 19 18 18 18 20 22 23 23 23 23 22 22 22 22 21 21 21 20 20 19 19 18 18 17 16 15 14 15 15 16 17 17 17 17 16 15 14
32 31 31 33 34 35 36 37 37 38 38 38 37 38 39 41 42 42 41 41 43 42 41 41 42 41 40 40 41 40 38 37 35 34 34 32 31 29 26 23 21 20 19 19 21 22 22 22 22 20 18 16 16 16 18 19 21 22 22 23 22 22 23 22 21 21 21 21 20 19 19 19 19 19 19 18 17 17 16 16 16 17 17 18 18 17 15
31 31 30 31 31 32 32 32 33 33 33 34 34 35 36 36 36 36 36 37 38 39 39 39 39 39 38 39 39 37 35 34 33 32 31 31 29 27 25 23 22 21 19 18 20 21 21 20 20 19 18 16 16 16 17 18 19 20 21 21 21 21 22 22 22 21 21 21 21 20 19 18 18 19 20 20 20 20 20 18 17 17 17 17 18 18 17
27 27 27 29 30 29 29 29 29 29 30 32 33 33 33 33 33 32 32 32 33 33 33 34 34 33 33 34 34 33 32 32 31 29 28 27 25 22 21 22 22 21 19 18 19 19 19 18 18 18 17 16 16 17 18 18 19 19 19 19 20 21 21 20 20 20 20 20 19 19 18 18 17 17 17 18 19 21 21 20 20 20 20 19 17 16 16
23 24 24 26 27 26 26 26 26 27 27 29 29 29 28 29 30 30 30 30 30 29 29 29 29 28 28 29 29 29 28 28 28 26 24 22 20 19 18 19 19 19 18 17 18 18 18 17 16 16 16 15 15 16 18 18 18 18 18 19 19 20 20 19 19 18 18 18 17 17 17 17 16 16 16 17 18 20 20 20 19 20 21 21 19 17 16
20 21 22 23 24 24 24 24 25 25 24 24 24 24 24 24 25 26 26 27 28 28 28 28 27 26 25 26 25 24 23 24 24 24 22 20 19 18 17 17 17 17 17 16 16 16 17 18 17 16 16 16 17 17 18 18 18 18 18 19 19 19 19 19 19 18 17 16 16 16 16 15 15 16 16 17 18 19 20 20 19 18 19 20 20 20 19
18 18 19 20 22 22 22 23 24 23 21 20 20 19 19 19 21 21 22 23 24 25 25 24 24 23 23 23 23 22 21 21 21 21 19 19 18 17 16 16 16 16 16 16 15 15 16 18 18 17 17 18 19 18 18 19 19 18 17 18 19 20 19 19 18 18 17 16 16 16 15 15 16 17 17 16 16 17 18 18 18 16 16 18 20 20 21
17 17 17 18 19 20 20 21 21 21 19 18 18 16 15 16 17 18 18 19 20 22 22 21 20 20 20 19 19 19 19 18 18 17 16 16 16 15 15 16 16 15 15 15 15 14 15 17 18 18 18 19 19 19 18 19 19 19 18 17 17 19 19 18 17 16 16 15 14 14 14 14 15 16 18 19 19 19 20 20 18 16 15 16 18 18 19
15 16 15 15 16 18 18 19 19 18 18 18 17 17 16 17 17 16 15 16 16 17 18 18 18 17 17 18 18 18 17 16 15 15 14 14 14 14 15 15 15 14 14 15 15 15 16 17 18 19 19 19 19 19 18 18 19 19 18 17 16 16 17 17 16 15 15 14 14 13 14 13 11 10 10 12 15 16 18 19 18 16 14 15 16 16 16
14 15 14 13 14 15 15 15 16 16 16 16 16 15 15 16 16 16 16 15 14 13 14 15 16 16 15 15 15 15 14 14 14 13 13 13 13 13 14 14 14 14 14 15 15 16 16 17 17 18 18 18 18 18 18 18 18 18 18 17 16 16 16 16 15 15 14 14 14 13 14 14 13 11 10 10 10 10 11 12 13 12 12 13 15 16 15
Wind_Direction
246 238 246 299 306 271 216 211 211 198 195 207 210 203 196 188 194 197 163 152 167 162 152 149 142 133 118 128 139 119 98 97 109 118 124 123 122 138 149 147 157 174 188 190 188 192 195 195 198 201 203 204 205 206 206 205 205 205 204 205 205 206 209 213 215 216 218 222 223 224 225 226 226 224 223 224 223 223 225 227 231 232 229 226 229 233 233
246 245 246 248 282 311 275 220 211 202 196 202 208 208 200 190 198 201 171 161 162 138 138 142 138 139 127 103 104 114 112 116 129 130 132 134 131 135 143 144 154 172 190 194 190 194 195 195 199 203 204 205 205 205 205 205 206 206 206 207 206 207 210 214 215 215 216 219 222 223 224 225 227 226 223 222 223 222 222 225 227 228 227 224 225 230 233
247 247 251 248 249 279 288 251 214 202 197 198 203 210 206 191 194 202 183 170 168 148 154 160 142 135 128 105 104 121 116 116 135 142 138 143 145 144 145 149 157 168 180 187 194 200 201 201 203 204 205 206 205 204 205 205 206 206 206 209 209 209 211 214 215 215 216 218 220 222 224 225 226 226 225 222 222 222 222 223 225 227 228 225 223 226 231
254 250 243 237 230 244 276 278 224 202 198 198 196 204 211 195 185 196 192 181 173 148 144 149 137 117 103 94 113 123 85 71 109 137 126 133 145 148 155 159 159 166 177 184 191 199 202 203 205 206 207 206 205 206 206 205 205 205 206 210 212 211 211 213 215 216 217 218 219 222 224 225 225 226 226 223 221 221 222 222 222 225 228 228 225 223 226
253 254 240 225 220 232 260 282 239 208 206 208 197 198 212 206 192 195 195 179 174 171 157 148 139 132 120 101 102 96 72 62 72 95 78 55 112 145 154 159 161 174 185 182 181 189 195 198 202 205 207 207 207 207 206 206 205 205 207 210 212 212 211 212 215 216 217 219 220 222 225 225 225 225 225 225 223 222 222 221 221 223 226 229 229 225 223
243 250 249 226 218 220 226 249 241 226 231 228 208 197 202 206 205 200 184 169 179 201 189 144 121 132 154 156 142 119 102 108 115 132 161 211 229 186 153 163 169 170 170 168 172 181 189 197 202 202 205 208 209 208 207 207 207 207 208 209 212 213 212 212 215 216 217 220 221 222 224 224 224 223 224 225 225 222 221 221 222 223 225 228 229 229 226
241 239 242 225 216 211 220 239 235 233 275 272 246 210 199 198 201 199 185 169 159 161 170 127 110 131 150 149 145 146 140 128 138 175 198 213 232 266 302 294 127 103 115 142 157 153 172 198 204 200 202 205 208 209 208 208 208 209 210 209 212 216 214 212 213 215 216 219 221 222 223 223 224 224 225 225 224 221 220 221 223 224 225 227 229 230 230
238 216 222 223 221 215 223 239 232 224 262 287 308 273 212 193 189 185 170 143 128 127 143 146 136 132 123 113 106 99 96 111 162 199 215 232 234 239 238 146 128 116 113 136 156 170 183 195 196 195 200 201 204 208 208 209 209 209 211 211 212 215 216 213 212 214 215 217 220 222 222 223 224 226 226 226 225 223 221 221 223 224 226 227 228 230 231
237 221 226 227 234 220 217 227 217 207 239 269 271 270 254 180 148 138 133 136 145 154 161 155 153 153 136 124 138 153 160 240 231 354 32 29 24 101 96 94 99 104 111 135 211 233 214 208 208 209 207 204 205 207 206 209 210 209 211 214 213 215 218 216 213 213 215 216 219 222 222 223 225 226 226 226 226 225 223 221 223 225 227 228 229 230 232
253 250 241 225 224 212 207 227 222 202 233 285 274 252 251 304 91 150 167 179 185 190 185 174 168 164 161 157 135 117 50 23 35 43 41 39 40 49 62 74 87 121 209 230 242 250 243 229 224 220 214 209 209 210 208 208 209 209 212 215 215 216 218 219 216 215 216 217 219 221 223 224 226 226 226 226 227 227 226 225 226 228 228 230 231 232 234
263 257 263 239 216 190 215 233 215 180 193 265 283 236 201 258 315 258 218 186 143 60 104 113 113 135 156 151 89 60 40 33 35 36 36 37 37 41 51 66 87 186 301 325 308 307 308 261 231 224 221 215 211 212 212 210 210 211 214 216 218 217 217 220 220 217 217 218 220 222 224 225 226 227 228 228 228 229 229 230 230 229 229 231 232 233 235
274 259 267 251 165 32 316 254 182 148 174 216 231 193 170 358 0 355 325 173 115 62 46 67 103 150 144 80 41 27 24 28 26 24 25 25 27 30 28 22 1 348 3 3 343 336 321 273 241 235 230 221 215 214 213 213 215 218 220 219 220 220 219 220 223 221 219 219 220 222 223 224 226 228 230 231 230 230 231 232 231 231 230 231 233 234 235
265 254 255 228 111 359 325 336 45 42 190 193 186 178 300 334 359 18 18 36 59 53 54 66 82 31 12 16 18 13 14 19 15 11 12 12 15 15 9 4 0 2 11 360 332 331 324 299 282 265 240 227 220 216 213 215 218 222 227 225 223 222 221 220 222 223 221 220 221 222 223 224 226 228 231 232 231 230 232 232 232 231 231 231 233 235 237
255 244 248 211 113 344 326 360 30 14 349 176 152 329 322 339 11 24 31 42 40 34 44 42 23 7 1 4 12 12 9 10 7 5 7 9 11 7 3 8 12 10 9 356 343 350 338 314 293 250 245 238 231 224 218 219 220 221 228 232 227 224 222 220 221 223 222 220 221 222 223 224 226 228 230 231 231 231 231 231 232 232 232 232 232 234 237
246 235 251 232 136 342 344 11 35 17 19 93 23 347 347 15 26 21 28 40 33 26 33 23 8 5 4 5 12 11 7 5 2 2 5 3 3 3 4 8 6 2 4 357 352 360 331 295 265 236 225 235 239 232 226 227 223 218 224 236 232 225 223 221 220 221 223 222 221 221 223 225 228 230 230 229 229 229 229 229 230 231 231 231 231 232 235
241 225 250 343 216 345 14 31 50 38 50 59 35 10 10 25 24 19 25 30 24 26 27 9 2 8 7 4 4 2 1 1 357 359 1 358 357 359 2 2 358 358 3 350 343 351 338 321 309 277 240 238 254 241 230 231 222 211 215 232 233 224 221 218 216 218 221 220 219 220 223 226 228 228 228 226 225 226 228 227 226 228 230 230 231 233 235
280 264 296 309 289 15 36 34 26 27 40 52 43 26 23 25 18 15 21 16 12 20 19 5 6 9 1 358 356 353 353 353 351 352 353 353 355 355 353 353 351 355 360 347 341 347 348 350 347 316 220 188 221 221 218 221 214 205 206 217 223 218 216 214 211 212 215 216 215 218 221 224 226 224 223 223 223 224 225 225 224 225 228 229 231 233 235
320 305 232 248 291 29 42 20 1 4 9 29 40 29 20 19 10 10 16 9 2 6 6 7 10 1 353 353 349 345 348 348 348 351 349 348 352 351 349 348 346 350 349 340 347 359 1 11 16 19 134 137 183 210 208 210 207 199 198 206 212 207 205 207 206 206 211 216 216 218 219 219 222 222 220 220 221 221 222 223 225 226 226 228 231 234 236
312 304 196 250 321 0 25 3 336 334 352 17 34 24 11 4 359 3 8 4 1 0 359 8 9 354 346 346 340 339 341 339 341 345 343 345 349 347 348 349 347 353 351 339 352 4 343 336 45 62 92 135 194 198 200 221 219 205 196 197 202 198 195 198 201 203 210 214 214 216 215 213 215 219 217 215 217 220 220 220 222 223 224 226 229 231 236
270 276 291 312 312 314 330 327 306 313 346 11 14 6 358 350 348 356 357 356 2 2 356 0 1 347 340 341 335 330 330 331 335 334 329 332 337 335 338 342 345 0 4 355 3 3 333 316 351 57 68 251 182 165 165 175 201 211 201 186 182 191 191 192 200 205 207 208 208 208 206 204 208 211 210 209 212 216 218 218 219 221 223 225 227 229 232
267 268 277 285 288 292 290 280 284 315 348 354 351 351 347 339 340 346 347 348 356 359 357 358 353 342 337 336 330 325 324 327 327 320 316 318 322 324 327 326 330 350 3 3 0 356 349 352 357 353 336 331 179 180 183 172 162 199 204 190 181 188 187 187 198 204 201 200 201 199 195 195 200 201 201 204 208 211 213 213 214 218 220 220 221 221 223
252 253 264 269 276 284 277 272 304 352 352 340 337 337 337 337 336 336 337 338 342 348 354 356 349 339 334 330 327 325 327 328 325 318 311 309 313 320 324 321 319 333 355 19 24 18 17 20 14 342 305 291 102 110 182 184 163 157 174 178 179 181 180 183 190 193 192 192 190 187 190 195 195 194 194 197 202 206 207 208 211 214 214 213 212 213 218
278 290 292 292 294 294 292 301 321 337 334 325 322 322 325 328 328 328 330 332 333 337 342 346 346 338 331 328 327 326 326 328 327 321 314 312 314 317 320 320 324 343 359 17 28 29 30 22 8 1 1 114 125 109 124 168 171 158 158 163 166 168 170 174 179 182 183 184 182 183 190 194 193 193 192 189 186 190 197 201 206 210 212 215 216 219 224
291 295 296 298 298 294 296 303 310 316 321 315 309 309 314 316 315 317 320 321 325 328 330 333 337 333 323 319 319 317 318 321 323 320 321 324 320 313 307 300 301 337 1 1 3 9 34 30 19 355 321 221 164 143 131 138 154 165 170 168 162 162 164 165 170 171 166 167 174 179 178 182 188 192 195 193 188 189 198 207 213 217 222 228 232 235 239
298 295 294 295 294 291 291 291 291 291 296 297 296 297 301 305 307 308 309 311 314 316 317 320 324 325 320 316 312 307 303 304 306 307 306 304 308 329 339 158 154 157 163 159 127 106 97 66 50 38 344 330 187 157 144 133 134 153 175 177 165 161 167 168 168 162 152 157 168 166 145 153 169 180 189 196 197 194 197 209 222 228 233 238 242 246 250
299 294 290 287 285 282 280 277 276 277 278 280 284 287 291 296 299 300 301 302 302 303 304 306 309 311 309 307 306 300 289 281 272 273 279 249 166 133 122 126 134 145 144 137 127 114 109 102 96 93 30 11 45 127 153 155 146 142 154 165 161 153 157 161 163 156 144 152 169 171 151 147 157 161 166 176 182 179 177 180 190 200 211 224 236 248 255
288 285 282 279 275 270 267 265 265 267 269 270 274 279 282 287 291 293 293 293 290 290 291 293 298 301 301 299 297 287 267 252 234 225 228 210 179 158 143 134 143 154 138 124 119 111 106 106 96 72 57 53 62 79 110 141 147 139 136 138 140 138 138 142 148 148 143 150 166 170 160 154 156 151 143 142 144 144 145 149 156 165 174 190 212 239 258
279 274 269 265 262 260 259 260 263 265 264 262 265 270 272 274 277 279 280 281 280 281 281 283 289 292 291 292 289 267 240 236 237 222 199 189 188 177 160 149 147 148 138 126 120 108 100 99 88 69 63 71 87 107 116 107 100 108 117 119 121 123 127 137 146 151 155 160 161 155 147 144 145 140 133 132 139 144 146 146 143 139 134 129 113 57 16
269 266 260 257 257 257 255 255 257 259 259 258 259 262 262 263 265 266 268 268 269 270 270 272 277 277 274 277 283 266 239 224 217 204 181 177 176 165 154 148 141 133 123 116 110 101 96 98 92 77 66 64 74 103 127 128 121 120 123 127 129 126 125 138 153 158 159 156 147 138 133 134 138 137 130 123 128 143 152 144 133 122 107 92 73 46 28
263 261 257 253 251 249 247 247 247 249 251 252 253 255 255 255 256 259 260 260 258 256 255 258 266 266 258 255 264 255 222 195 187 179 164 158 154 146 138 135 131 119 106 102 103 102 102 100 91 82 78 74 73 81 94 108 125 137 136 132 132 128 118 114 123 131 132 129 125 123 122 122 126 131 131 126 127 136 142 125 114 109 95 72 45 26 13
261 257 254 251 245 241 241 242 243 244 245 246 247 250 251 249 248 249 252 254 250 242 236 241 255 258 245 235 234 220 196 185 182 167 147 140 138 132 124 118 113 104 95 91 93 94 93 89 84 85 90 92 89 79 71 74 87 109 123 124 122 120 115 109 110 114 113 112 112 113 115 114 113 115 118 120 123 127 120 107 108 109 94 339 340 3 0
254 252 250 246 239 234 234 237 240 240 240 240 242 243 245 245 244 243 244 246 240 229 225 230 240 245 233 219 207 187 176 173 163 143 130 124 121 120 117 112 104 97 91 88 88 86 82 77 75 81 91 97 94 85 78 80 86 96 105 107 106 108 109 109 109 108 105 107 111 111 111 112 113 114 117 117 120 125 123 117 117 115 102 298 303 337 351
237 239 239 234 229 228 231 234 235 236 236 237 237 238 240 240 238 238 240 238 227 221 223 223 221 224 221 203 176 148 136 134 130 123 118 112 108 107 108 105 98 92 87 85 87 89 84 77 72 69 70 85 98 95 90 89 92 98 102 101 96 95 96 97 98 97 96 99 102 106 114 117 113 112 118 116 115 123 128 128 127 113 100 5 313 332 346
235 234 236 230 224 225 228 231 232 234 234 234 234 234 235 233 231 233 234 226 215 215 216 208 197 196 194 180 161 136 120 114 107 101 100 100 98 97 96 95 94 91 85 78 80 86 85 78 70 63 60 71 91 98 93 88 88 92 96 95 94 94 93 92 92 93 95 97 95 98 108 110 102 101 105 101 95 105 118 121 113 74 48 347 323 333 342
17 240 242 242 237 235 236 236 233 231 229 229 230 229 228 227 226 224 219 212 210 212 206 192 185 184 173 157 137 116 109 107 101 93 89 86 86 88 90 89 90 93 89 78 71 75 80 77 69 64 68 79 87 91 90 87 87 91 95 95 96 99 102 102 96 92 98 105 102 97 98 100 104 110 112 102 103 106 97 92 87 44 17 3 340 334 334
48 55 54 295 240 234 238 240 234 227 225 226 227 224 222 221 220 217 213 210 207 198 186 175 170 163 148 134 120 108 104 105 102 98 91 83 80 83 83 78 77 81 84 79 71 71 77 79 72 69 75 85 88 90 88 82 79 83 89 91 91 92 95 98 90 81 86 97 100 97 97 96 100 108 110 105 106 104 93 90 91 66 32 21 8 348 335
45 51 56 58 64 70 69 69 168 226 232 230 223 214 212 212 210 206 205 201 191 179 168 158 150 141 128 118 114 111 108 106 104 101 95 90 90 90 84 74 67 66 68 71 76 80 83 82 76 73 75 81 88 94 93 85 77 76 77 79 80 78 78 79 74 69 70 72 74 77 80 74 71 82 97 94 83 75 75 89 92 71 43 17 355 345 339
39 44 51 57 61 63 66 69 74 80 142 198 193 186 190 196 194 185 183 184 180 172 159 145 138 133 127 121 117 113 111 108 105 101 97 94 93 91 83 74 65 61 62 69 83 94 93 89 85 79 73 71 80 90 93 88 81 76 74 76 77 76 74 73 72 70 68 67 65 66 68 65 61 65 74 74 69 63 57 56 58 52 39 19 4 6 1
36 38 44 52 57 61 65 68 70 72 78 87 94 103 118 139 157 166 175 184 180 161 145 137 132 126 123 121 116 110 107 106 101 96 94 91 89 88 85 78 74 73 75 80 90 94 92 92 92 86 75 66 69 81 90 92 90 86 80 74 71 71 71 70 70 69 68 67 65 64 63 61 59 57 61 73 91 98 87 73 67 60 41 14 343 315 309
39 38 41 47 51 55 60 63 65 66 68 71 76 82 91 99 106 112 125 143 148 139 132 131 129 121 116 115 112 108 106 105 100 96 96 93 89 86 83 77 74 79 84 87 90 92 92 93 92 87 80 73 72 75 81 88 94 95 90 80 73 73 76 75 70 66 65 63 61 59 59 59 57 53 54 67 88 103 103 91 76 49 322 297 289 288 283
44 44 44 47 49 51 53 57 61 63 61 61 65 74 82 88 89 85 82 91 106 111 113 117 119 116 112 111 110 108 105 101 97 95 94 92 87 81 76 69 68 75 82 84 86 89 91 91 87 84 82 83 84 85 85 85 87 91 91 87 84 86 86 80 71 63 60 61 60 58 58 60 57 51 50 58 64 65 65 59 46 25 350 326 321 322 320
48 50 51 51 52 53 53 55 58 59 58 57 60 66 72 78 82 80 77 79 86 91 93 98 104 106 105 103 103 102 99 96 93 89 85 83 80 76 71 67 67 73 79 82 81 81 82 81 79 77 79 84 88 91 92 90 85 83 83 83 85 88 88 83 76 68 63 60 60 59 59 60 57 53 53 56 57 54 53 52 50 45 38 28 17 8 0
48 52 55 57 59 59 58 59 60 60 60 59 60 64 68 72 74 76 76 78 82 84 85 88 91 94 95 94 93 91 88 87 85 82 78 76 75 73 72 71 71 73 75 77 76 74 74 73 70 69 73 81 87 91 94 92 88 84 80 78 77 78 78 77 76 75 72 66 61 58 56 54 53 53 55 55 53 50 49 49 48 47 46 42 36 31 24
47 53 58 62 64 64 65 65 65 65 65 64 64 66 69 71 72 72 72 75 78 81 82 83 83 85 86 86 85 83 81 80 79 76 73 69 66 64 64 67 72 74 75 76 76 74 72 71 69 67 68 74 81 86 89 90 88 86 83 79 76 75 74 71 70 73 74 71 66 61 57 54 52 52 54 57 57 56 55 54 53 54 52 49 45 40 35
43 51 56 61 65 67 68 70 70 70 71 71 70 70 71 73 74 74 74 74 76 77 78 79 80 80 80 80 81 81 80 79 77 75 71 67 62 55 51 53 59 65 69 73 75 75 73 72 71 68 66 68 73 78 81 83 83 83 83 80 77 75 73 71 69 69 70 69 67 64 60 56 53 49 49 51 55 58 59 60 61 60 57 53 50 47 44
38 44 51 58 63 67 70 72 73 74 75 75 74 74 74 75 76 77 77 76 76 77 77 77 77 77 76 78 79 80 79 78 76 73 71 70 68 61 52 48 49 53 58 63 68 70 71 71 70 68 66 67 71 73 73 74 75 76 77 77 76 73 70 69 70 70 69 67 66 65 63 61 58 55 51 50 51 53 55 57 59 60 58 54 49 45 44
34 37 43 51 60 66 71 73 71 70 72 74 74 75 78 79 79 79 78 78 78 79 78 77 76 75 75 75 77 78 78 77 75 72 70 69 69 67 62 54 47 46 51 59 66 70 70 69 70 69 67 68 72 74 72 70 70 70 71 71 72 72 70 67 66 68 70 70 69 69 68 66 64 61 57 53 50 48 47 47 49 52 55 55 53 49 45
33 36 39 44 50 58 66 71 70 68 71 75 77 78 80 81 82 82 82 83 82 80 78 76 75 74 74 74 73 72 72 72 71 68 64 62 62 65 68 65 57 51 50 56 67 74 73 68 67 69 71 69 70 72 72 70 68 68 69 68 66 65 66 65 63 61 62 65 67 67 67 69 70 70 66 61 56 53 51 48 47 43 39 38 42 47 48
33 36 38 41 45 50 57 63 65 65 69 75 80 81 78 76 77 77 79 81 81 79 77 75 72 70 70 72 72 69 66 64 64 63 60 56 56 61 68 70 66 59 55 54 59 71 76 71 64 64 68 70 69 70 71 70 67 65 67 69 68 65 63 62 62 59 57 56 57 57 57 58 60 57 51 46 47 51 50 49 52 53 46 36 33 35 39
37 35 37 40 45 50 54 57 60 61 63 68 74 76 74 73 75 76 74 73 72 71 68 65 64 62 61 64 67 68 67 64 63 63 60 55 52 58 67 70 65 61 59 56 56 63 73 72 64 60 62 65 65 65 67 68 66 63 61 65 71 73 68 63 60 60 58 56 53 52 49 45 42 37 31 28 30 32 30 28 33 45 51 45 38 35 34
43 38 37 38 42 47 50 52 54 57 58 60 63 64 63 64 68 71 73 73 73 71 69 66 62 57 54 54 57 60 63 64 63 62 60 56 52 54 61 66 64 61 60 59 57 58 63 66 65 63 63 63 63 63 63 65 67 66 62 59 63 69 69 65 60 58 57 56 55 52 49 47 47 51 51 47 44 41 37 34 35 42 45 39 34 34 36
51 46 42 40 39 40 42 45 48 51 53 54 55 56 56 57 55 54 57 64 69 71 74 75 71 64 58 55 53 54 56 58 59 59 59 59 57 55 57 61 63 62 61 62 61 60 61 61 62 63 64 63 63 64 64 64 66 67 66 62 60 62 64 65 64 61 59 57 56 53 50 49 49 53 57 58 56 55 49 40 36 40 42 35 24 21 23
Height
1361 1358 1357 1357 1357 1356 1355 1358 1358 1357 1363 1367 1369 1374 1374 1375 1389 1394 1383 1382 1390 1384 1376 1375 1373 1372 1373 1371 1371 1375 1379 1384 1387 1389 1390 1393 1397 1400 1403 1405 1407 1410 1414 1417 1418 1421 1424 1427 1431 1433 1436 1439 1440 1443 1446 1448 1450 1452 1454 1456 1457 1459 1460 1461 1462 1465 1468 1472 1474 1478 1481 1484 1487 1490 1492 1495 1498 1500 1502 1503 1505 1507 1510 1512 1512 1512 1514
1363 1360 1358 1356 1359 1360 1357 1355 1353 1353 1358 1363 1366 1369 1368 1371 1380 1379 1376 1382 1383 1376 1374 1374 1370 1370 1372 1373 1375 1377 1381 1386 1389 1390 1391 1393 1398 1402 1404 1406 1408 1411 1415 1417 1419 1422 1423 1426 1429 1431 1433 1435 1437 1440 1442 1444 1447 1449 1451 1453 1455 1456 1457 1457 1460 1463 1466 1468 1471 1474 1477 1479 1482 1485 1488 1491 1494 1496 1498 1500 1502 1504 1506 1508 1509 1509 1510
1368 1363 1360 1359 1361 1365 1363 1358 1351 1350 1355 1360 1365 1367 1365 1370 1378 1375 1375 1385 1385 1373 1370 1371 1370 1372 1374 1377 1380 1381 1384 1388 1389 1390 1392 1393 1397 1402 1404 1407 1410 1413 1416 1418 1419 1421 1422 1424 1426 1428 1430 1432 1434 1437 1439 1441 1443 1446 1448 1449 1450 1452 1454 1456 1459 1461 1463 1465 1467 1470 1473 1475 1478 1481 1484 1487 1489 1492 1494 1497 1499 1500 1502 1504 1506 1507 1507
1377 1367 1365 1364 1361 1363 1366 1362 1351 1347 1353 1358 1362 1364 1363 1367 1376 1379 1380 1387 1385 1373 1368 1371 1373 1374 1378 1381 1383 1385 1387 1390 1392 1392 1393 1395 1398 1401 1404 1407 1410 1413 1415 1416 1418 1419 1420 1422 1424 1426 1428 1430 1432 1434 1435 1438 1440 1443 1445 1445 1445 1448 1451 1454 1456 1457 1459 1462 1464 1466 1469 1471 1474 1477 1480 1483 1485 1488 1490 1492 1495 1497 1498 1499 1501 1504 1504
1382 1370 1366 1363 1364 1374 1378 1366 1351 1346 1350 1354 1357 1361 1362 1360 1367 1378 1383 1382 1377 1370 1369 1375 1379 1380 1384 1386 1387 1389 1392 1394 1396 1396 1397 1399 1400 1402 1405 1406 1409 1412 1412 1413 1415 1417 1419 1421 1422 1424 1426 1427 1429 1431 1433 1435 1437 1439 1440 1442 1443 1444 1447 1450 1451 1453 1456 1459 1461 1463 1465 1468 1471 1473 1476 1478 1480 1483 1485 1488 1491 1492 1493 1494 1496 1499 1500
1386 1374 1367 1367 1377 1388 1383 1363 1349 1348 1352 1355 1356 1358 1359 1358 1359 1366 1372 1372 1371 1369 1369 1374 1381 1384 1386 1389 1390 1393 1395 1397 1399 1400 1401 1402 1402 1403 1405 1406 1408 1409 1409 1412 1415 1416 1418 1419 1420 1422 1424 1425 1427 1429 1431 1432 1434 1435 1437 1439 1440 1441 1442 1445 1447 1450 1453 1455 1457 1460 1462 1465 1467 1469 1472 1473 1476 1479 1482 1485 1486 1487 1488 1490 1492 1493 1496
1387 1376 1375 1386 1392 1385 1371 1356 1346 1347 1351 1351 1352 1352 1352 1354 1357 1359 1364 1369 1370 1371 1371 1374 1380 1384 1386 1389 1392 1394 1396 1398 1400 1401 1402 1403 1403 1404 1405 1405 1406 1407 1409 1412 1414 1415 1417 1418 1418 1420 1421 1423 1425 1427 1428 1429 1431 1432 1434 1436 1438 1438 1439 1441 1443 1446 1448 1451 1454 1457 1459 1462 1464 1465 1467 1469 1472 1476 1478 1480 1481 1482 1484 1486 1487 1488 1490
1387 1383 1387 1396 1392 1373 1362 1358 1350 1350 1355 1356 1361 1363 1354 1349 1353 1358 1363 1368 1369 1373 1375 1377 1382 1385 1387 1391 1393 1395 1397 1399 1400 1402 1403 1403 1404 1405 1405 1405 1406 1407 1409 1411 1413 1414 1416 1416 1418 1419 1420 1421 1423 1424 1425 1426 1428 1429 1431 1433 1435 1436 1436 1437 1439 1442 1444 1448 1451 1453 1456 1458 1460 1461 1463 1465 1468 1471 1474 1476 1477 1479 1481 1482 1483 1484 1486
1388 1392 1392 1388 1385 1376 1369 1365 1357 1355 1361 1363 1369 1375 1364 1351 1351 1358 1364 1369 1372 1375 1379 1381 1384 1386 1390 1394 1396 1397 1399 1400 1401 1403 1403 1403 1403 1404 1404 1404 1405 1407 1409 1411 1412 1414 1414 1416 1417 1418 1419 1420 1421 1422 1423 1424 1425 1427 1429 1429 1431 1432 1433 1434 1436 1439 1441 1444 1447 1450 1452 1454 1455 1457 1460 1462 1465 1467 1470 1472 1474 1475 1476 1478 1479 1481 1482
1391 1396 1399 1393 1392 1387 1374 1366 1359 1356 1361 1362 1365 1375 1375 1362 1357 1361 1366 1372 1376 1377 1379 1383 1384 1387 1395 1401 1399 1398 1400 1401 1401 1402 1403 1403 1405 1405 1405 1404 1405 1408 1409 1410 1412 1413 1413 1414 1415 1416 1417 1418 1419 1420 1420 1421 1423 1424 1425 1426 1427 1429 1431 1432 1434 1436 1438 1441 1443 1446 1448 1449 1451 1454 1457 1459 1461 1464 1466 1468 1469 1471 1473 1474 1476 1477 1477
1399 1403 1408 1399 1391 1385 1375 1367 1362 1361 1365 1366 1368 1382 1387 1374 1366 1367 1369 1374 1379 1380 1381 1383 1385 1392 1402 1406 1400 1399 1402 1402 1402 1404 1405 1405 1407 1407 1406 1406 1406 1408 1409 1410 1411 1412 1412 1413 1413 1414 1415 1415 1416 1418 1418 1419 1421 1421 1421 1422 1424 1427 1429 1431 1432 1434 1436 1438 1440 1442 1444 1446 1448 1451 1454 1456 1458 1461 1463 1464 1466 1468 1470 1471 1472 1473 1474
1408 1409 1407 1394 1388 1390 1380 1369 1365 1366 1368 1370 1381 1399 1401 1387 1379 1377 1374 1375 1380 1384 1387 1388 1391 1397 1403 1404 1402 1402 1404 1404 1404 1406 1406 1407 1408 1408 1408 1407 1407 1408 1409 1410 1410 1411 1411 1411 1411 1412 1413 1413 1414 1415 1416 1418 1418 1417 1418 1420 1422 1425 1428 1430 1431 1432 1434 1436 1437 1439 1441 1444 1446 1448 1451 1453 1455 1457 1459 1461 1463 1465 1467 1468 1469 1470 1471
1412 1411 1405 1394 1396 1401 1388 1374 1374 1374 1372 1379 1395 1408 1406 1395 1389 1386 1382 1382 1386 1390 1392 1394 1397 1400 1401 1403 1405 1405 1405 1406 1406 1406 1407 1407 1408 1408 1408 1408 1407 1408 1409 1410 1410 1410 1410 1409 1409 1410 1411 1411 1411 1412 1413 1415 1415 1416 1417 1418 1421 1423 1425 1427 1429 1430 1432 1434 1435 1437 1440 1442 1445 1447 1448 1450 1452 1454 1456 1458 1460 1462 1463 1465 1466 1467 1468
1410 1408 1403 1398 1403 1405 1391 1383 1384 1381 1384 1398 1409 1408 1404 1399 1395 1393 1392 1394 1395 1396 1397 1399 1402 1404 1404 1404 1405 1405 1406 1407 1407 1407 1407 1407 1407 1408 1408 1408 1407 1407 1408 1409 1409 1409 1408 1407 1407 1408 1408 1409 1409 1410 1411 1412 1413 1415 1416 1417 1418 1420 1422 1425 1426 1428 1430 1432 1434 1436 1439 1441 1443 1444 1446 1448 1450 1451 1453 1455 1457 1458 1460 1462 1463 1464 1465
1411 1408 1406 1409 1416 1411 1396 1392 1396 1395 1400 1411 1413 1409 1406 1403 1399 1399 1400 1402 1403 1404 1403 1404 1406 1406 1405 1406 1406 1406 1407 1408 1408 1408 1408 1407 1407 1408 1408 1408 1407 1407 1408 1409 1408 1408 1407 1405 1406 1406 1406 1407 1407 1408 1409 1410 1411 1414 1415 1415 1416 1417 1419 1422 1424 1425 1428 1430 1432 1435 1437 1439 1440 1442 1443 1445 1447 1449 1450 1452 1454 1456 1457 1458 1460 1461 1462
1414 1414 1412 1416 1421 1414 1402 1402 1407 1408 1407 1410 1411 1411 1410 1407 1406 1407 1407 1408 1409 1409 1408 1409 1409 1408 1408 1408 1408 1408 1409 1409 1409 1409 1408 1408 1408 1408 1408 1408 1407 1407 1408 1408 1407 1407 1406 1404 1405 1405 1406 1406 1407 1407 1408 1408 1409 1411 1413 1414 1415 1415 1417 1419 1421 1423 1425 1427 1430 1433 1435 1437 1438 1439 1441 1443 1444 1446 1448 1449 1451 1452 1454 1455 1456 1457 1459
1416 1416 1416 1416 1416 1412 1409 1410 1410 1410 1409 1410 1412 1414 1413 1412 1413 1413 1412 1413 1413 1412 1412 1413 1412 1411 1411 1411 1411 1410 1410 1409 1410 1409 1409 1409 1409 1408 1409 1408 1406 1406 1407 1407 1406 1406 1406 1405 1405 1405 1405 1406 1406 1406 1407 1407 1408 1410 1411 1413 1413 1414 1416 1417 1420 1422 1423 1426 1428 1431 1433 1435 1436 1437 1439 1440 1442 1444 1445 1447 1449 1450 1451 1453 1454 1455 1457
1418 1415 1414 1414 1414 1413 1414 1414 1413 1413 1412 1412 1414 1415 1416 1416 1417 1417 1416 1417 1415 1414 1415 1414 1414 1414 1414 1413 1413 1412 1411 1410 1410 1409 1409 1409 1408 1408 1408 1407 1406 1406 1407 1407 1406 1406 1405 1405 1405 1405 1406 1406 1405 1405 1406 1406 1407 1408 1410 1412 1412 1414 1415 1417 1419 1421 1423 1424 1427 1429 1432 1433 1434 1435 1437 1438 1440 1442 1443 1444 1446 1448 1449 1451 1452 1453 1455
1424 1419 1413 1412 1414 1415 1415 1416 1416 1415 1415 1415 1416 1418 1418 1419 1419 1419 1418 1418 1417 1416 1416 1415 1415 1415 1414 1414 1414 1413 1412 1411 1410 1409 1409 1408 1408 1408 1408 1407 1407 1406 1406 1406 1406 1405 1405 1405 1404 1405 1405 1405 1404 1405 1406 1407 1408 1408 1410 1411 1411 1413 1414 1416 1418 1420 1422 1424 1426 1428 1430 1431 1432 1433 1435 1437 1438 1439 1441 1443 1444 1445 1447 1449 1450 1452 1453
1426 1422 1414 1413 1416 1416 1417 1418 1417 1416 1417 1418 1418 1419 1419 1419 1420 1419 1419 1418 1417 1417 1416 1415 1415 1415 1415 1416 1415 1414 1413 1412 1410 1410 1410 1409 1408 1408 1408 1407 1407 1406 1406 1406 1406 1405 1405 1405 1405 1405 1404 1404 1404 1404 1405 1406 1407 1408 1408 1409 1411 1412 1414 1416 1417 1419 1421 1423 1424 1426 1428 1430 1431 1432 1433 1434 1436 1437 1439 1440 1441 1443 1445 1447 1448 1450 1451
1425 1421 1416 1416 1416 1415 1415 1417 1417 1417 1418 1419 1419 1419 1419 1419 1419 1419 1418 1418 1418 1418 1417 1416 1415 1416 1416 1416 1415 1414 1413 1412 1411 1410 1409 1409 1409 1408 1408 1407 1407 1406 1406 1406 1406 1406 1405 1405 1405 1405 1405 1405 1404 1404 1404 1405 1406 1406 1408 1409 1410 1412 1414 1415 1416 1418 1419 1421 1423 1425 1427 1428 1429 1429 1431 1432 1433 1434 1435 1437 1439 1441 1442 1444 1445 1446 1447
1425 1419 1416 1416 1416 1415 1413 1413 1415 1417 1418 1418 1419 1419 1419 1418 1418 1417 1417 1417 1417 1417 1418 1417 1416 1415 1415 1415 1415 1414 1412 1411 1411 1410 1409 1409 1409 1408 1407 1407 1407 1407 1406 1406 1406 1406 1406 1406 1406 1405 1405 1405 1405 1405 1405 1406 1406 1407 1407 1409 1410 1412 1413 1414 1415 1416 1418 1420 1422 1424 1425 1425 1426 1428 1429 1430 1431 1432 1433 1435 1437 1438 1440 1441 1442 1443 1443
1423 1418 1416 1416 1417 1416 1414 1414 1415 1417 1418 1417 1417 1417 1418 1418 1417 1416 1415 1415 1414 1414 1414 1415 1415 1414 1413 1413 1413 1412 1411 1411 1410 1410 1409 1409 1408 1408 1408 1407 1407 1407 1407 1406 1406 1406 1406 1406 1406 1406 1406 1406 1405 1405 1405 1406 1407 1407 1407 1408 1409 1410 1411 1412 1414 1415 1416 1418 1421 1422 1423 1422 1423 1425 1427 1428 1430 1431 1432 1434 1435 1437 1438 1439 1440 1441 1441
1423 1421 1420 1419 1418 1418 1417 1417 1417 1417 1418 1417 1415 1415 1416 1417 1417 1417 1416 1415 1413 1412 1411 1412 1413 1413 1413 1413 1412 1411 1410 1410 1410 1410 1409 1409 1408 1408 1408 1408 1408 1407 1407 1407 1407 1407 1407 1407 1406 1406 1406 1405 1405 1404 1404 1404 1406 1407 1407 1407 1408 1409 1410 1411 1412 1414 1415 1417 1419 1421 1420 1420 1422 1423 1424 1426 1428 1430 1431 1433 1434 1435 1436 1437 1438 1439 1439
1427 1424 1421 1420 1419 1418 1419 1419 1418 1417 1418 1418 1416 1414 1414 1414 1415 1415 1414 1414 1413 1413 1412 1412 1413 1413 1413 1413 1412 1411 1410 1410 1410 1410 1409 1409 1409 1408 1408 1408 1408 1408 1407 1407 1407 1407 1407 1407 1406 1406 1406 1405 1404 1404 1404 1404 1404 1405 1406 1407 1408 1409 1410 1411 1412 1414 1415 1417 1418 1419 1419 1421 1422 1423 1424 1425 1427 1428 1430 1431 1432 1433 1434 1435 1436 1436 1437
1428 1426 1424 1421 1418 1417 1418 1418 1417 1417 1418 1418 1417 1416 1415 1414 1414 1413 1413 1413 1413 1413 1413 1413 1412 1412 1413 1413 1412 1411 1410 1410 1409 1409 1409 1409 1409 1409 1408 1408 1408 1408 1408 1408 1407 1407 1407 1407 1406 1406 1406 1405 1405 1404 1404 1404 1404 1404 1405 1407 1407 1409 1410 1411 1413 1414 1415 1416 1417 1418 1419 1421 1421 1422 1424 1425 1426 1427 1429 1430 1431 1432 1433 1433 1434 1435 1435
1425 1424 1424 1421 1417 1415 1416 1415 1415 1416 1417 1418 1417 1416 1416 1415 1415 1414 1413 1413 1413 1413 1414 1413 1412 1412 1412 1412 1412 1411 1410 1410 1410 1409 1409 1409 1409 1409 1408 1409 1409 1409 1408 1408 1408 1408 1407 1407 1407 1407 1406 1406 1406 1405 1405 1405 1405 1405 1406 1407 1408 1410 1411 1412 1413 1414 1414 1415 1416 1417 1419 1420 1421 1422 1423 1424 1426 1427 1428 1429 1430 1431 1432 1432 1433 1434 1434
1419 1419 1420 1418 1414 1413 1414 1414 1414 1414 1415 1415 1416 1416 1416 1415 1415 1414 1414 1414 1414 1414 1413 1413 1413 1412 1412 1411 1411 1410 1410 1410 1410 1410 1409 1409 1409 1409 1408 1408 1409 1409 1408 1408 1408 1408 1408 1408 1408 1408 1407 1407 1406 1406 1407 1407 1407 1407 1408 1409 1410 1411 1412 1413 1413 1413 1414 1415 1416 1417 1419 1420 1421 1423 1424 1424 1426 1427 1428 1429 1430 1431 1431 1432 1432 1432 1433
1411 1412 1413 1412 1410 1410 1411 1412 1412 1412 1412 1413 1414 1414 1414 1414 1414 1413 1413 1413 1413 1413 1413 1413 1413 1412 1411 1411 1411 1410 1409 1410 1410 1410 1409 1409 1409 1409 1408 1407 1408 1409 1408 1408 1409 1409 1409 1409 1409 1408 1408 1408 1407 1407 1408 1408 1408 1408 1409 1409 1410 1411 1412 1412 1413 1414 1414 1415 1417 1418 1420 1420 1421 1423 1424 1425 1427 1427 1428 1429 1430 1430 1431 1431 1431 1431 1432
1403 1404 1405 1405 1405 1406 1407 1407 1407 1408 1409 1410 1411 1411 1411 1412 1412 1411 1412 1412 1412 1413 1413 1412 1412 1412 1411 1411 1411 1410 1410 1410 1410 1410 1409 1409 1408 1409 1408 1408 1408 1409 1409 1408 1409 1410 1410 1410 1409 1409 1409 1409 1409 1409 1409 1409 1409 1409 1409 1409 1410 1411 1412 1413 1414 1415 1416 1417 1418 1420 1421 1422 1423 1424 1424 1426 1427 1427 1428 1429 1430 1430 1430 1430 1430 1431 1432
1396 1397 1398 1398 1399 1400 1401 1401 1402 1403 1405 1406 1408 1408 1408 1409 1409 1409 1410 1410 1410 1411 1411 1411 1411 1411 1411 1411 1411 1411 1410 1410 1411 1411 1410 1409 1408 1408 1408 1407 1407 1408 1408 1408 1409 1410 1410 1410 1410 1410 1409 1409 1410 1411 1411 1411 1410 1410 1411 1412 1412 1413 1414 1415 1416 1417 1417 1418 1419 1421 1422 1423 1424 1425 1426 1426 1427 1428 1428 1429 1429 1430 1430 1430 1430 1430 1431
1391 1391 1392 1392 1393 1394 1395 1396 1397 1398 1400 1402 1403 1404 1404 1405 1405 1406 1407 1408 1408 1409 1409 1410 1410 1411 1411 1411 1412 1411 1410 1411 1411 1411 1411 1410 1409 1408 1407 1407 1407 1408 1409 1409 1410 1409 1410 1410 1411 1411 1411 1410 1410 1410 1411 1412 1412 1413 1413 1414 1415 1416 1416 1417 1417 1418 1419 1419 1420 1421 1423 1423 1424 1425 1426 1427 1428 1428 1429 1429 1430 1430 1430 1429 1429 1429 1429
1386 1385 1385 1386 1387 1389 1390 1391 1393 1394 1396 1397 1399 1400 1401 1402 1402 1403 1404 1405 1405 1406 1407 1408 1409 1410 1411 1412 1412 1411 1411 1411 1412 1412 1411 1411 1410 1409 1407 1407 1407 1408 1410 1411 1411 1410 1410 1411 1411 1412 1411 1411 1410 1410 1410 1411 1413 1414 1415 1416 1417 1417 1418 1418 1419 1419 1420 1421 1421 1422 1423 1424 1425 1425 1426 1427 1428 1428 1429 1429 1430 1430 1430 1429 1428 1428 1428
1380 1380 1381 1382 1383 1385 1386 1387 1388 1390 1391 1393 1395 1396 1397 1398 1399 1400 1401 1402 1402 1403 1404 1406 1409 1410 1411 1412 1412 1411 1411 1412 1413 1413 1413 1412 1411 1410 1408 1407 1407 1408 1410 1412 1412 1411 1412 1413 1413 1413 1412 1412 1412 1412 1412 1412 1414 1416 1416 1417 1418 1418 1419 1420 1420 1421 1422 1422 1423 1423 1424 1425 1425 1426 1427 1427 1428 1428 1428 1429 1429 1429 1429 1428 1427 1427 1427
1377 1377 1379 1381 1382 1382 1383 1384 1384 1386 1387 1389 1391 1392 1393 1394 1396 1397 1398 1399 1400 1401 1403 1405 1408 1410 1411 1411 1411 1411 1411 1411 1413 1413 1413 1413 1412 1410 1409 1408 1407 1408 1410 1412 1413 1413 1414 1414 1414 1414 1414 1413 1413 1414 1414 1414 1415 1416 1417 1418 1418 1418 1419 1419 1420 1420 1421 1422 1422 1423 1424 1424 1425 1425 1426 1426 1426 1427 1427 1427 1427 1427 1428 1428 1427 1426 1427
1380 1379 1379 1380 1380 1380 1381 1381 1381 1382 1384 1386 1387 1388 1390 1392 1393 1394 1395 1396 1398 1400 1402 1404 1406 1408 1409 1410 1410 1410 1410 1411 1412 1412 1413 1413 1412 1411 1409 1409 1410 1411 1412 1413 1414 1415 1416 1416 1416 1416 1416 1415 1415 1415 1416 1416 1417 1417 1418 1418 1419 1419 1419 1420 1420 1421 1421 1422 1422 1423 1423 1424 1424 1424 1424 1424 1424 1424 1424 1425 1425 1426 1427 1428 1428 1427 1427
1386 1384 1383 1381 1380 1379 1379 1379 1379 1380 1382 1383 1385 1386 1388 1389 1391 1392 1393 1394 1396 1399 1401 1403 1404 1406 1407 1409 1409 1409 1410 1411 1412 1412 1412 1413 1413 1412 1411 1413 1414 1415 1416 1416 1417 1418 1418 1418 1418 1418 1417 1417 1417 1417 1417 1418 1419 1419 1420 1420 1420 1420 1421 1422 1423 1423 1423 1423 1424 1424 1424 1424 1424 1424 1423 1423 1424 1424 1424 1424 1424 1425 1425 1426 1427 1427 1427
1393 1390 1387 1385 1383 1382 1381 1379 1379 1380 1381 1383 1385 1386 1386 1387 1389 1391 1392 1395 1397 1399 1402 1403 1404 1405 1406 1408 1409 1409 1411 1412 1412 1413 1414 1414 1414 1414 1415 1416 1418 1418 1419 1420 1420 1420 1420 1420 1419 1419 1419 1419 1419 1418 1418 1419 1419 1420 1420 1421 1422 1422 1423 1424 1425 1425 1425 1426 1426 1425 1425 1425 1425 1424 1425 1425 1425 1425 1424 1424 1424 1425 1425 1426 1426 1426 1426
1399 1396 1393 1390 1387 1385 1383 1381 1382 1383 1384 1384 1384 1385 1385 1386 1388 1390 1393 1396 1399 1400 1401 1402 1403 1406 1408 1409 1409 1410 1412 1413 1414 1415 1417 1418 1418 1417 1417 1419 1420 1421 1422 1423 1422 1422 1421 1421 1420 1419 1420 1421 1421 1420 1420 1420 1419 1420 1421 1422 1423 1424 1425 1426 1426 1426 1426 1427 1427 1426 1426 1426 1426 1426 1426 1425 1425 1424 1424 1424 1424 1424 1424 1424 1424 1424 1424
1409 1406 1402 1398 1394 1392 1390 1389 1388 1389 1388 1388 1387 1387 1386 1386 1387 1389 1392 1396 1398 1398 1399 1400 1402 1406 1409 1409 1409 1411 1413 1414 1415 1417 1419 1420 1420 1419 1418 1420 1422 1424 1424 1424 1424 1423 1423 1422 1421 1420 1420 1421 1422 1422 1422 1422 1421 1421 1422 1423 1424 1425 1425 1426 1426 1427 1427 1427 1427 1428 1427 1427 1427 1426 1426 1425 1425 1424 1423 1422 1422 1422 1422 1422 1422 1422 1422
1418 1415 1412 1407 1404 1402 1401 1399 1397 1396 1396 1396 1394 1392 1391 1389 1389 1392 1395 1396 1395 1395 1398 1400 1401 1405 1409 1411 1410 1412 1414 1415 1417 1419 1420 1420 1420 1420 1421 1423 1426 1427 1427 1427 1426 1425 1424 1423 1422 1422 1422 1423 1423 1423 1423 1423 1424 1424 1424 1424 1425 1425 1425 1426 1426 1427 1428 1428 1428 1429 1429 1429 1428 1427 1427 1426 1425 1424 1423 1422 1422 1422 1422 1422 1422 1421 1421
1426 1424 1420 1416 1414 1412 1410 1407 1405 1404 1404 1403 1401 1399 1397 1395 1395 1398 1402 1401 1399 1399 1403 1404 1404 1407 1411 1413 1413 1413 1415 1416 1418 1420 1421 1421 1422 1423 1424 1427 1429 1430 1429 1428 1427 1426 1425 1425 1424 1425 1425 1426 1426 1425 1425 1425 1425 1426 1426 1426 1426 1426 1426 1427 1427 1428 1429 1430 1430 1430 1430 1430 1429 1428 1428 1427 1426 1425 1424 1423 1423 1423 1422 1422 1421 1421 1420
1432 1430 1427 1424 1422 1421 1419 1417 1415 1414 1413 1411 1410 1408 1407 1405 1405 1407 1409 1409 1408 1409 1411 1411 1411 1412 1415 1416 1416 1416 1417 1419 1420 1422 1424 1425 1427 1428 1429 1430 1431 1432 1431 1430 1429 1429 1428 1428 1428 1428 1429 1428 1428 1428 1427 1426 1426 1427 1427 1428 1428 1428 1429 1429 1430 1430 1431 1432 1432 1432 1432 1431 1431 1430 1430 1429 1428 1427 1425 1424 1424 1424 1423 1422 1421 1421 1420
1437 1435 1433 1431 1430 1428 1427 1426 1425 1423 1422 1421 1420 1419 1417 1415 1415 1417 1417 1417 1417 1418 1418 1418 1417 1418 1420 1420 1419 1419 1421 1423 1425 1427 1428 1429 1431 1432 1433 1434 1434 1433 1433 1433 1432 1432 1432 1432 1432 1432 1431 1431 1430 1430 1429 1428 1429 1429 1429 1430 1430 1431 1431 1432 1432 1433 1433 1433 1434 1434 1434 1434 1434 1434 1433 1432 1430 1428 1427 1426 1426 1425 1424 1424 1423 1422 1422
1442 1441 1439 1437 1436 1434 1433 1432 1431 1431 1430 1429 1428 1427 1426 1425 1425 1426 1425 1425 1424 1425 1425 1424 1424 1425 1426 1425 1424 1425 1426 1427 1429 1430 1432 1433 1435 1437 1438 1437 1436 1436 1436 1435 1434 1434 1435 1435 1435 1434 1434 1433 1432 1432 1431 1431 1431 1431 1431 1432 1432 1433 1433 1434 1434 1435 1435 1436 1436 1436 1436 1437 1437 1437 1436 1435 1433 1430 1429 1428 1428 1427 1425 1425 1424 1423 1423
1447 1445 1444 1442 1441 1439 1439 1438 1437 1437 1436 1434 1433 1433 1433 1433 1433 1432 1432 1431 1431 1431 1431 1431 1430 1431 1431 1431 1430 1430 1430 1431 1433 1434 1436 1437 1439 1441 1441 1440 1439 1438 1438 1437 1437 1437 1437 1437 1437 1436 1436 1435 1434 1433 1433 1433 1433 1433 1433 1433 1434 1434 1435 1436 1436 1437 1437 1438 1438 1438 1438 1439 1440 1441 1440 1438 1435 1433 1432 1430 1429 1427 1426 1425 1425 1425 1425
1450 1449 1447 1446 1445 1444 1443 1442 1442 1441 1440 1439 1438 1439 1439 1439 1438 1438 1437 1437 1437 1436 1436 1436 1436 1436 1436 1436 1435 1435 1435 1436 1437 1439 1440 1441 1442 1443 1443 1442 1441 1441 1440 1439 1439 1439 1440 1439 1439 1438 1437 1436 1435 1435 1435 1435 1435 1435 1435 1435 1436 1436 1437 1438 1438 1439 1439 1439 1439 1440 1440 1441 1442 1443 1443 1441 1438 1436 1434 1432 1430 1428 1427 1426 1427 1427 1427
1454 1452 1451 1450 1448 1447 1446 1445 1445 1444 1444 1444 1443 1444 1444 1443 1443 1442 1442 1441 1441 1441 1440 1440 1441 1441 1441 1440 1440 1440 1441 1441 1441 1442 1444 1444 1445 1445 1445 1444 1444 1444 1443 1442 1442 1442 1442 1442 1441 1440 1439 1438 1437 1437 1437 1437 1437 1437 1437 1438 1438 1439 1439 1440 1441 1441 1441 1442 1442 1442 1443 1443 1444 1444 1443 1441 1439 1437 1435 1434 1432 1430 1429 1428 1428 1428 1428
1456 1456 1455 1453 1452 1450 1450 1449 1448 1448 1448 1448 1447 1447 1447 1447 1446 1446 1446 1446 1445 1445 1445 1445 1445 1445 1445 1445 1444 1445 1445 1445 1445 1446 1447 1447 1447 1446 1446 1446 1446 1446 1445 1445 1444 1444 1444 1444 1443 1442 1441 1440 1439 1439 1439 1439 1439 1439 1439 1440 1440 1441 1442 1442 1443 1444 1444 1445 1445 1445 1445 1445 1445 1444 1442 1440 1439 1437 1436 1435 1433 1432 1432 1431 1430 1430 1429
1458 1458 1457 1456 1455 1454 1454 1453 1452 1452 1452 1451 1450 1450 1450 1450 1449 1449 1449 1449 1448 1448 1448 1448 1448 1448 1448 1448 1448 1448 1449 1449 1449 1449 1450 1449 1449 1448 1448 1448 1448 1448 1448 1447 1446 1446 1446 1445 1444 1444 1443 1442 1441 1441 1441 1441 1441 1441 1442 1442 1442 1443 1443 1444 1445 1446 1446 1447 1447 1447 1446 1446 1445 1444 1443 1441 1440 1439 1438 1436 1435 1434 1434 1433 1432 1432 1431
1460 1460 1459 1459 1458 1458 1457 1456 1456 1455 1455 1454 1453 1453 1453 1452 1452 1452 1452 1452 1452 1451 1451 1451 1451 1451 1451 1451 1451 1451 1452 1452 1452 1452 1452 1451 1451 1450 1450 1450 1450 1450 1449 1448 1448 1447 1447 1446 1446 1445 1445 1444 1444 1443 1443 1443 1443 1444 1444 1445 1445 1445 1445 1446 1447 1448 1448 1448 1448 1448 1447 1446 1446 1445 1444 1443 1442 1441 1440 1438 1437 1436 1436 1436 1435 1434 1432
1462 1461 1461 1461 1461 1460 1460 1459 1459 1458 1457 1457 1456 1456 1456 1455 1455 1454 1454 1454 1454 1454 1454 1454 1454 1454 1454 1454 1454 1454 1454 1454 1454 1454 1453 1453 1453 1452 1452 1452 1452 1451 1451 1450 1449 1449 1449 1449 1448 1448 1447 1447 1447 1447 1447 1446 1446 1446 1447 1447 1448 1448 1448 1448 1449 1449 1449 1449 1449 1449 1448 1448 1447 1446 1445 1444 1443 1442 1441 1439 1438 1437 1437 1437 1436 1435 1434